Fort Lewis, WA

3:16 PM PDT on March 24, 2017 (GMT -0700)
Gray Army Air Field

Weather History for KGRF - November, 2013

Change the Weather History Date:

Wednesday, November 27, 2013

  Actual Average Record
Temperature  
Mean Temperature 42 °F -  
Max Temperature 53 °F 47 °F 59 °F (2011)
Min Temperature 32 °F 34 °F 22 °F (2015)
Degree Days  
Heating Degree Days 22    
Moisture  
Dew Point 36 °F    
Average Humidity 96    
Maximum Humidity 100    
Minimum Humidity 61    
Precipitation  
Precipitation 0.00 in - - ()
Sea Level Pressure  
Sea Level Pressure 30.01 in    
Wind  
Wind Speed 2 mph (SE)    
Max Wind Speed 7 mph    
Max Gust Speed -    
Visibility 6 miles    
Events      
Averages and records for this station are not official NWS values.
T = Trace of Precipitation, MM = Missing Value Source: NWS Daily Summary

Daily Weather History Graph

Daily Weather History Graph

Search for Another Location

Airport or City:

Trip Planner

Search our weather history database for the weather conditions in past years. The results will help you decide how hot, cold, wet, or windy it might be!

Date:

Astronomy

Nov. 27, 2013 Rise Set
Actual Time 7:31 AM PST 4:24 PM PST
Civil Twilight 6:56 AM PST 4:59 PM PST
Nautical Twilight 6:18 AM PST 5:37 PM PST
Astronomical Twilight 5:42 AM PST 6:13 PM PST
Moon 1:17 AM PST (11/27) 1:24 PM PST (11/27)
Length of Visible Light 10h 02m
Length of Day
8h 53m
Waning Crescent, 30% of the Moon is Illuminated
Nov 27
Waning Crescent
Dec 2
New
Dec 9
First Quarter
Dec 17
Full
Dec 25
Last Quarter

Hourly Weather History & Observations

Time (PST) Temp. Windchill Dew Point Humidity Pressure Visibility Wind Dir Wind Speed Gust Speed Precip Events Conditions
12:58 AM 42.4 °F - 42.3 °F 99% 30.10 in 10.0 mi Calm Calm - N/A   Overcast
1:58 AM 42.4 °F - 41.9 °F 98% 30.09 in 10.0 mi Calm Calm - N/A   Overcast
2:58 AM 40.8 °F - 40.5 °F 99% 30.08 in 10.0 mi East 1.2 mph - N/A   Overcast
3:58 AM 40.8 °F - 40.5 °F 99% 30.07 in 10.0 mi Calm Calm - N/A   Overcast
4:58 AM 38.8 °F 33.8 °F 38.7 °F 99% 30.05 in 10.0 mi SE 6.9 mph - N/A   Mostly Cloudy
5:58 AM 38.8 °F - 38.5 °F 99% 30.04 in 10.0 mi Calm Calm - N/A   Overcast
6:58 AM 38.7 °F - 38.5 °F 99% 30.03 in 10.0 mi Calm Calm - N/A   Overcast
7:58 AM 36.0 °F - 35.8 °F 99% 30.04 in 10.0 mi South 1.2 mph - N/A   Scattered Clouds
8:58 AM 39.9 °F - 39.7 °F 99% 30.04 in 10.0 mi Calm Calm - N/A   Scattered Clouds
9:58 AM 44.4 °F - 41.7 °F 90% 30.04 in 10.0 mi Calm Calm - N/A   Partly Cloudy
10:58 AM 46.9 °F - 42.8 °F 86% 30.03 in 10.0 mi East 1.2 mph - N/A   Scattered Clouds
11:58 AM 48.6 °F - 43.2 °F 82% 30.01 in 10.0 mi NNE 5.8 mph - N/A   Scattered Clouds
12:58 PM 52.7 °F - 41.4 °F 65% 30.00 in 10.0 mi Calm Calm - N/A   Clear
1:58 PM 52.7 °F - 39.9 °F 62% 29.99 in 10.0 mi Calm Calm - N/A   Clear
2:58 PM 53.1 °F - 39.9 °F 61% 29.98 in 10.0 mi Calm Calm - N/A   Clear
3:58 PM 49.5 °F - 42.3 °F 76% 29.98 in 10.0 mi ENE 1.2 mph - N/A   Mostly Cloudy
4:58 PM 43.5 °F - 41.7 °F 93% 29.98 in 10.0 mi North - - N/A   Scattered Clouds
5:58 PM 41.5 °F - 41.2 °F 99% 29.99 in 10.0 mi ESE 1.2 mph - N/A   Scattered Clouds
6:58 PM 39.9 °F - 39.6 °F 99% 30.00 in 10.0 mi Calm Calm - N/A   Partly Cloudy
7:23 PM 39.2 °F - 39.2 °F 100% 29.99 in 4.0 mi Calm Calm - N/A   Clear
7:28 PM 39.2 °F - 39.2 °F 100% 29.99 in 1.5 mi Calm Calm - N/A   Clear
7:33 PM 37.4 °F - 37.4 °F 100% 29.99 in 1.0 mi SE 2.3 mph - N/A   Clear
7:38 PM 37.4 °F - 37.4 °F 100% 29.99 in 1.5 mi SE 2.3 mph - N/A   Clear
7:43 PM 37.4 °F 34.9 °F 37.4 °F 100% 29.99 in 2.5 mi SSE 3.5 mph - N/A   Clear
7:48 PM 35.6 °F 32.8 °F 35.6 °F 100% 29.99 in 1.5 mi SSE 3.5 mph - N/A   Clear
7:53 PM 35.6 °F 32.8 °F 35.6 °F 100% 29.99 in 1.0 mi SE 3.5 mph - N/A   Clear
7:58 PM 35.8 °F 31.9 °F 35.6 °F 99% 30.01 in 1.2 mi SE 4.6 mph - N/A   Clear
8:03 PM 37.4 °F - 37.4 °F 100% 29.99 in 2.5 mi East 2.3 mph - N/A   Clear
8:08 PM 37.4 °F - 37.4 °F 100% 29.99 in 6.0 mi East 1.2 mph - N/A   Clear
8:18 PM 35.6 °F - 33.8 °F 93% 29.99 in 1.8 mi Calm Calm - N/A   Clear
8:23 PM 33.8 °F - 33.8 °F 100% 29.99 in 2.5 mi Calm Calm - N/A   Clear
8:28 PM 33.8 °F - 33.8 °F 100% 29.99 in 9.0 mi SE 2.3 mph - N/A   Clear
8:33 PM 32.0 °F 28.7 °F 32.0 °F 100% 29.99 in 3.0 mi SE 3.5 mph - N/A   Clear
8:38 PM 32.0 °F 28.7 °F 32.0 °F 100% 29.99 in 2.0 mi SE 3.5 mph - N/A   Clear
8:43 PM 32.0 °F 28.7 °F 32.0 °F 100% 29.99 in 3.0 mi SE 3.5 mph - N/A   Clear
8:48 PM 32.0 °F 27.5 °F 32.0 °F 100% 29.99 in 9.0 mi SE 4.6 mph - N/A   Clear
8:58 PM 33.4 °F 29.1 °F 33.3 °F 99% 30.02 in 10.0 mi SE 4.6 mph - N/A   Clear
9:13 PM 35.6 °F 30.7 °F 33.8 °F 93% 30.00 in 7.0 mi SE 5.8 mph - N/A   Clear
9:23 PM 35.6 °F 32.8 °F 35.6 °F 100% 30.00 in 10.0 mi ESE 3.5 mph - N/A   Clear
9:58 PM 35.4 °F - 35.2 °F 99% 30.03 in 5.0 mi SE 1.2 mph - N/A   Clear
10:03 PM 35.6 °F - 35.6 °F 100% 30.01 in 1.2 mi SSE 2.3 mph - N/A   Clear
10:08 PM 33.8 °F - 33.8 °F 100% 30.01 in 1.5 mi SSE 2.3 mph - N/A   Clear
10:13 PM 32.0 °F - 32.0 °F 100% 30.01 in 6.0 mi SSE 1.2 mph - N/A   Clear
10:23 PM 32.0 °F - 32.0 °F 100% 30.01 in 10.0 mi ESE 2.3 mph - N/A   Clear
10:38 PM 32.0 °F - 32.0 °F 100% 30.01 in 5.0 mi SE 2.3 mph - N/A   Clear
10:43 PM 33.8 °F - 32.0 °F 93% 30.02 in 3.0 mi SE 2.3 mph - N/A   Clear
10:48 PM 33.8 °F - 33.8 °F 100% 30.02 in 5.0 mi ESE 2.3 mph - N/A   Clear
10:53 PM 35.6 °F - 33.8 °F 93% 30.02 in 10.0 mi ESE 2.3 mph - N/A   Clear
10:58 PM 34.3 °F 31.4 °F 34.2 °F 99% 30.04 in 3.0 mi ESE 3.5 mph - N/A   Clear
11:03 PM 33.8 °F - 32.0 °F 93% 30.01 in 1.8 mi East 2.3 mph - N/A   Clear
11:08 PM 32.0 °F - 32.0 °F 100% 30.01 in 3.0 mi ENE 2.3 mph - N/A   Clear
11:13 PM 32.0 °F - 32.0 °F 100% 30.02 in 8.0 mi Calm Calm - N/A   Clear
11:18 PM 32.0 °F - 32.0 °F 100% 30.02 in 10.0 mi SSE 1.2 mph - N/A   Clear
11:23 PM 32.0 °F - 32.0 °F 100% 30.02 in 5.0 mi SE 2.3 mph - N/A   Partly Cloudy
11:28 PM 32.0 °F - 32.0 °F 100% 30.02 in 2.5 mi SE 2.3 mph - N/A   Partly Cloudy
11:33 PM 32.0 °F - 32.0 °F 100% 30.02 in 3.0 mi ESE 2.3 mph - N/A   Partly Cloudy
11:38 PM 32.0 °F - 32.0 °F 100% 30.02 in 9.0 mi ESE 1.2 mph - N/A   Partly Cloudy
11:43 PM 32.0 °F - 32.0 °F 100% 30.02 in 7.0 mi SE 2.3 mph - N/A   Partly Cloudy
11:58 PM 32.0 °F - 31.6 °F 99% 30.05 in 7.0 mi SE 2.3 mph - N/A   Clear